Location: Unspecified
(0.0000°N, 0.0000°E)
Time: 21:50:23
(UTC+00:00)

Tiros 1 - Pass Details

Date: 09 October 2020
Orbit: 630 x 663 km, 48.4° (Epoch: 30 October)

Event Time Altitude Azimuth Distance (km) Brightness Sun altitude
Rises 18:08:28 0° 348° (NNW) 2,969 10.6 -5.3°
Reaches altitude 10° 18:11:28 10° 7° (N) 2,064 9.6 -6.1°
Maximum altitude 18:14:43 18° 50° (NE) 1,593 8.7 -6.9°
Drops below altitude 10° 18:17:59 10° 94° (E) 2,073 9.1 -7.7°
Enters shadow 18:18:25 - 97° (E) 2,186 9.2 -7.8°
